Year,Month,Day,Hour,Minute,Value (Times are PST for windgust in km/hr)
2014,12,10,00,00,9.60
2014,12,10,00,03,4.80
2014,12,10,00,04,14.50
2014,12,10,00,05,9.60
2014,12,10,00,06,9.60
2014,12,10,00,07,6.40
2014,12,10,00,08,9.60
2014,12,10,00,09,8.10
2014,12,10,00,10,6.40
2014,12,10,00,11,8.10
2014,12,10,00,12,4.80
2014,12,10,00,13,14.50
2014,12,10,00,14,8.10
2014,12,10,00,15,12.90
2014,12,10,00,16,4.80
2014,12,10,00,17,3.20
2014,12,10,00,18,4.80
2014,12,10,00,19,3.20
2014,12,10,00,20,6.40
2014,12,10,00,21,6.40
2014,12,10,00,22,6.40
2014,12,10,00,23,4.80
2014,12,10,00,24,4.80
2014,12,10,00,25,3.20
2014,12,10,00,26,9.60
2014,12,10,00,27,3.20
2014,12,10,00,28,4.80
2014,12,10,00,29,1.60
2014,12,10,00,30,3.20
2014,12,10,00,31,6.40
2014,12,10,00,32,8.10
2014,12,10,00,33,1.60
2014,12,10,00,34,9.60
2014,12,10,00,35,3.20
2014,12,10,00,36,4.80
2014,12,10,00,37,3.20
2014,12,10,00,38,3.20
2014,12,10,00,39,12.90
2014,12,10,00,40,8.10
2014,12,10,00,41,6.40
2014,12,10,00,42,6.40
2014,12,10,00,43,1.60
2014,12,10,00,44,4.80
2014,12,10,00,45,9.60
2014,12,10,00,46,3.20
2014,12,10,00,47,3.20
2014,12,10,00,48,3.20
2014,12,10,00,49,1.60
2014,12,10,00,50,3.20
2014,12,10,00,51,4.80
2014,12,10,00,52,12.90
2014,12,10,00,53,9.60
2014,12,10,00,54,6.40
2014,12,10,00,55,6.40
2014,12,10,00,56,1.60
2014,12,10,00,57,3.20
2014,12,10,00,58,6.40
2014,12,10,00,59,8.10
2014,12,10,01,00,6.40
2014,12,10,01,01,3.20
2014,12,10,01,02,6.40
2014,12,10,01,03,3.20
2014,12,10,01,04,3.20
2014,12,10,01,05,1.60
2014,12,10,01,06,1.60
2014,12,10,01,07,6.40
2014,12,10,01,08,6.40
2014,12,10,01,09,4.80
2014,12,10,01,10,4.80
2014,12,10,01,11,4.80
2014,12,10,01,12,6.40
2014,12,10,01,13,4.80
2014,12,10,01,14,4.80
2014,12,10,01,15,3.20
2014,12,10,01,16,8.10
2014,12,10,01,17,3.20
2014,12,10,01,19,4.80
2014,12,10,01,20,6.40
2014,12,10,01,21,1.60
2014,12,10,01,22,8.10
2014,12,10,01,23,3.20
2014,12,10,01,24,1.60
2014,12,10,01,25,8.10
2014,12,10,01,26,4.80
2014,12,10,01,27,6.40
2014,12,10,01,28,6.40
2014,12,10,01,29,4.80
2014,12,10,01,30,11.30
2014,12,10,01,31,9.60
2014,12,10,01,32,8.10
2014,12,10,01,33,9.60
2014,12,10,01,34,1.60
2014,12,10,01,35,3.20
2014,12,10,01,36,3.20
2014,12,10,01,37,6.40
2014,12,10,01,38,4.80
2014,12,10,01,39,4.80
2014,12,10,01,40,6.40
2014,12,10,01,41,1.60
2014,12,10,01,42,8.10
2014,12,10,01,43,11.30
2014,12,10,01,44,12.90
2014,12,10,01,45,12.90
2014,12,10,01,46,11.30
2014,12,10,01,47,12.90
2014,12,10,01,48,4.80
2014,12,10,01,49,6.40
2014,12,10,01,50,8.10
2014,12,10,01,51,6.40
2014,12,10,01,52,6.40
2014,12,10,01,53,9.60
2014,12,10,01,54,4.80
2014,12,10,01,55,1.60
2014,12,10,01,56,4.80
2014,12,10,01,57,6.40
2014,12,10,01,58,3.20
2014,12,10,01,59,6.40
2014,12,10,02,00,3.20
2014,12,10,02,01,3.20
2014,12,10,02,02,4.80
2014,12,10,02,03,8.10
2014,12,10,02,04,9.60
2014,12,10,02,05,8.10
2014,12,10,02,06,3.20
2014,12,10,02,07,1.60
2014,12,10,02,08,6.40
2014,12,10,02,09,6.40
2014,12,10,02,10,12.90
2014,12,10,02,11,16.10
2014,12,10,02,12,12.90
2014,12,10,02,13,11.30
2014,12,10,02,14,11.30
2014,12,10,02,15,12.90
2014,12,10,02,16,4.80
2014,12,10,02,17,11.30
2014,12,10,02,18,9.60
2014,12,10,02,19,11.30
2014,12,10,02,20,9.60
2014,12,10,02,21,6.40
2014,12,10,02,22,11.30
2014,12,10,02,23,16.10
2014,12,10,02,24,12.90
2014,12,10,02,25,6.40
2014,12,10,02,26,11.30
2014,12,10,02,27,8.10
2014,12,10,02,28,9.60
2014,12,10,02,29,4.80
2014,12,10,02,30,9.60
2014,12,10,02,31,9.60
2014,12,10,02,32,14.50
2014,12,10,02,33,8.10
2014,12,10,02,34,8.10
2014,12,10,02,35,6.40
2014,12,10,02,36,9.60
2014,12,10,02,37,4.80
2014,12,10,02,38,4.80
2014,12,10,02,39,12.90
2014,12,10,02,40,8.10
2014,12,10,02,41,9.60
2014,12,10,02,42,11.30
2014,12,10,02,43,11.30
2014,12,10,02,44,4.80
2014,12,10,02,45,4.80
2014,12,10,02,46,9.60
2014,12,10,02,47,4.80
2014,12,10,02,48,9.60
2014,12,10,02,49,11.30
2014,12,10,02,50,14.50
2014,12,10,02,51,9.60
2014,12,10,02,52,12.90
2014,12,10,02,53,9.60
2014,12,10,02,54,9.60
2014,12,10,02,55,11.30
2014,12,10,02,56,8.10
2014,12,10,02,57,6.40
2014,12,10,02,58,8.10
2014,12,10,02,59,8.10
2014,12,10,03,00,8.10
2014,12,10,03,01,8.10
2014,12,10,03,02,6.40
2014,12,10,03,03,19.30
2014,12,10,03,04,14.50
2014,12,10,03,05,14.50
2014,12,10,03,06,14.50
2014,12,10,03,07,12.90
2014,12,10,03,08,9.60
2014,12,10,03,09,17.70
2014,12,10,03,10,11.30
2014,12,10,03,11,22.50
2014,12,10,03,12,12.90
2014,12,10,03,13,12.90
2014,12,10,03,14,16.10
2014,12,10,03,15,19.30
2014,12,10,03,16,20.90
2014,12,10,03,17,12.90
2014,12,10,03,18,14.50
2014,12,10,03,19,12.90
2014,12,10,03,20,25.70
2014,12,10,03,21,19.30
2014,12,10,03,22,17.70
2014,12,10,03,23,19.30
2014,12,10,03,24,17.70
2014,12,10,03,25,22.50
2014,12,10,03,26,12.90
2014,12,10,03,27,12.90
2014,12,10,03,28,12.90
2014,12,10,03,29,16.10
2014,12,10,03,30,20.90
2014,12,10,03,31,8.10
2014,12,10,03,32,8.10
2014,12,10,03,33,9.60
2014,12,10,03,34,9.60
2014,12,10,03,35,8.10
2014,12,10,03,36,16.10
2014,12,10,03,37,11.30
2014,12,10,03,38,6.40
2014,12,10,03,39,11.30
2014,12,10,03,40,17.70
2014,12,10,03,41,17.70
2014,12,10,03,42,14.50
2014,12,10,03,43,9.60
2014,12,10,03,44,9.60
2014,12,10,03,45,17.70
2014,12,10,03,46,38.60
2014,12,10,03,47,27.40
2014,12,10,03,48,16.10
2014,12,10,03,49,12.90
2014,12,10,03,50,9.60
2014,12,10,03,51,19.30
2014,12,10,03,52,19.30
2014,12,10,03,53,16.10
2014,12,10,03,54,19.30
2014,12,10,03,55,9.60
2014,12,10,03,56,12.90
2014,12,10,03,57,22.50
2014,12,10,03,58,20.90
2014,12,10,03,59,20.90
2014,12,10,04,00,9.60
2014,12,10,04,01,14.50
2014,12,10,04,02,11.30
2014,12,10,04,03,8.10
2014,12,10,04,04,17.70
2014,12,10,04,05,17.70
2014,12,10,04,06,11.30
2014,12,10,04,07,17.70
2014,12,10,04,08,8.10
2014,12,10,04,09,9.60
2014,12,10,04,10,9.60
2014,12,10,04,11,16.10
2014,12,10,04,12,12.90
2014,12,10,04,13,12.90
2014,12,10,04,14,8.10
2014,12,10,04,15,17.70
2014,12,10,04,16,12.90
2014,12,10,04,17,12.90
2014,12,10,04,18,12.90
2014,12,10,04,19,9.60
2014,12,10,04,20,11.30
2014,12,10,04,21,11.30
2014,12,10,04,22,9.60
2014,12,10,04,23,11.30
2014,12,10,04,24,11.30
2014,12,10,04,25,12.90
2014,12,10,04,26,8.10
2014,12,10,04,27,6.40
2014,12,10,04,28,25.70
2014,12,10,04,29,24.20
2014,12,10,04,30,11.30
2014,12,10,04,31,22.50
2014,12,10,04,32,12.90
2014,12,10,04,33,8.10
2014,12,10,04,34,16.10
2014,12,10,04,35,32.20
2014,12,10,04,36,20.90
2014,12,10,04,37,12.90
2014,12,10,04,38,16.10
2014,12,10,04,39,14.50
2014,12,10,04,40,12.90
2014,12,10,04,41,16.10
2014,12,10,04,42,16.10
2014,12,10,04,43,6.40
2014,12,10,04,44,4.80
2014,12,10,04,45,19.30
2014,12,10,04,46,9.60
2014,12,10,04,47,20.90
2014,12,10,04,48,19.30
2014,12,10,04,49,11.30
2014,12,10,04,50,11.30
2014,12,10,04,51,8.10
2014,12,10,04,52,16.10
2014,12,10,04,53,24.20
2014,12,10,04,54,16.10
2014,12,10,04,55,12.90
2014,12,10,04,56,20.90
2014,12,10,04,57,14.50
2014,12,10,04,58,29.00
2014,12,10,04,59,12.90
2014,12,10,05,00,14.50
2014,12,10,05,01,9.60
2014,12,10,05,02,8.10
2014,12,10,05,03,14.50
2014,12,10,05,04,11.30
2014,12,10,05,05,16.10
2014,12,10,05,06,17.70
2014,12,10,05,07,11.30
2014,12,10,05,08,3.20
2014,12,10,05,09,8.10
2014,12,10,05,10,6.40
2014,12,10,05,11,17.70
2014,12,10,05,12,22.50
2014,12,10,05,13,9.60
2014,12,10,05,14,17.70
2014,12,10,05,15,11.30
2014,12,10,05,16,22.50
2014,12,10,05,17,8.10
2014,12,10,05,18,19.30
2014,12,10,05,19,11.30
2014,12,10,05,20,16.10
2014,12,10,05,21,16.10
2014,12,10,05,22,9.60
2014,12,10,05,23,20.90
2014,12,10,05,24,9.60
2014,12,10,05,25,6.40
2014,12,10,05,26,9.60
2014,12,10,05,27,9.60
2014,12,10,05,28,11.30
2014,12,10,05,29,16.10
2014,12,10,05,30,12.90
2014,12,10,05,31,9.60
2014,12,10,05,32,16.10
2014,12,10,05,33,19.30
2014,12,10,05,34,9.60
2014,12,10,05,35,9.60
2014,12,10,05,36,8.10
2014,12,10,05,37,6.40
2014,12,10,05,38,12.90
2014,12,10,05,39,17.70
2014,12,10,05,40,14.50
2014,12,10,05,41,16.10
2014,12,10,05,42,9.60
2014,12,10,05,43,8.10
2014,12,10,05,44,8.10
2014,12,10,05,45,8.10
2014,12,10,05,46,11.30
2014,12,10,05,47,6.40
2014,12,10,05,48,9.60
2014,12,10,05,49,9.60
2014,12,10,05,50,9.60
2014,12,10,05,51,8.10
2014,12,10,05,52,6.40
2014,12,10,05,53,3.20
2014,12,10,05,54,11.30
2014,12,10,05,55,12.90
2014,12,10,05,56,6.40
2014,12,10,05,57,4.80
2014,12,10,05,58,8.10
2014,12,10,05,59,16.10
2014,12,10,06,00,11.30
2014,12,10,06,01,9.60
2014,12,10,06,02,3.20
2014,12,10,06,03,9.60
2014,12,10,06,04,11.30
2014,12,10,06,05,14.50
2014,12,10,06,06,4.80
2014,12,10,06,07,4.80
2014,12,10,06,08,3.20
2014,12,10,06,09,1.60
2014,12,10,06,10,6.40
2014,12,10,06,11,9.60
2014,12,10,06,12,9.60
2014,12,10,06,13,9.60
2014,12,10,06,14,8.10
2014,12,10,06,15,12.90
2014,12,10,06,16,11.30
2014,12,10,06,17,6.40
2014,12,10,06,18,9.60
2014,12,10,06,19,11.30
2014,12,10,06,20,8.10
2014,12,10,06,21,8.10
2014,12,10,06,22,6.40
2014,12,10,06,23,12.90
2014,12,10,06,24,6.40
2014,12,10,06,25,17.70
2014,12,10,06,26,14.50
2014,12,10,06,27,8.10
2014,12,10,06,28,9.60
2014,12,10,06,29,9.60
2014,12,10,06,30,16.10
2014,12,10,06,31,9.60
2014,12,10,06,32,9.60
2014,12,10,06,33,11.30
2014,12,10,06,34,9.60
2014,12,10,06,35,11.30
2014,12,10,06,36,6.40
2014,12,10,06,37,20.90
2014,12,10,06,38,19.30
2014,12,10,06,39,20.90
2014,12,10,06,40,8.10
2014,12,10,06,41,17.70
2014,12,10,06,42,16.10
2014,12,10,06,43,20.90
2014,12,10,06,44,17.70
2014,12,10,06,45,16.10
2014,12,10,06,46,12.90
2014,12,10,06,47,12.90
2014,12,10,06,48,8.10
2014,12,10,06,49,17.70
2014,12,10,06,50,9.60
2014,12,10,06,51,12.90
2014,12,10,06,52,6.40
2014,12,10,06,53,12.90
2014,12,10,06,54,9.60
2014,12,10,06,55,12.90
2014,12,10,06,56,12.90
2014,12,10,06,57,8.10
2014,12,10,06,58,17.70
2014,12,10,06,59,9.60
2014,12,10,07,00,17.70
2014,12,10,07,01,12.90
2014,12,10,07,02,17.70
2014,12,10,07,03,9.60
2014,12,10,07,04,22.50
2014,12,10,07,05,12.90
2014,12,10,07,06,9.60
2014,12,10,07,07,6.40
2014,12,10,07,08,11.30
2014,12,10,07,09,9.60
2014,12,10,07,10,16.10
2014,12,10,07,11,8.10
2014,12,10,07,12,14.50
2014,12,10,07,13,12.90
2014,12,10,07,14,12.90
2014,12,10,07,15,16.10
2014,12,10,07,16,16.10
2014,12,10,07,17,9.60
2014,12,10,07,18,11.30
2014,12,10,07,19,6.40
2014,12,10,07,20,8.10
2014,12,10,07,21,17.70
2014,12,10,07,22,17.70
2014,12,10,07,23,24.20
2014,12,10,07,24,17.70
2014,12,10,07,25,6.40
2014,12,10,07,26,19.30
2014,12,10,07,27,12.90
2014,12,10,07,28,9.60
2014,12,10,07,29,14.50
2014,12,10,07,30,8.10
2014,12,10,07,31,8.10
2014,12,10,07,32,8.10
2014,12,10,07,33,6.40
2014,12,10,07,34,8.10
2014,12,10,07,35,8.10
2014,12,10,07,36,9.60
2014,12,10,07,37,11.30
2014,12,10,07,38,12.90
2014,12,10,07,39,12.90
2014,12,10,07,40,8.10
2014,12,10,07,41,12.90
2014,12,10,07,42,9.60
2014,12,10,07,43,8.10
2014,12,10,07,44,9.60
2014,12,10,07,45,11.30
2014,12,10,07,46,12.90
2014,12,10,07,47,11.30
2014,12,10,07,48,17.70
2014,12,10,07,49,17.70
2014,12,10,07,50,9.60
2014,12,10,07,51,20.90
2014,12,10,07,52,11.30
2014,12,10,07,53,6.40
2014,12,10,07,54,25.70
2014,12,10,07,55,16.10
2014,12,10,07,56,11.30
2014,12,10,07,57,8.10
2014,12,10,07,58,8.10
2014,12,10,07,59,11.30
2014,12,10,08,00,9.60
2014,12,10,08,01,11.30
2014,12,10,08,02,8.10
2014,12,10,08,03,9.60
2014,12,10,08,04,11.30
2014,12,10,08,05,9.60
2014,12,10,08,06,17.70
2014,12,10,08,07,17.70
2014,12,10,08,08,20.90
2014,12,10,08,09,12.90
2014,12,10,08,10,9.60
2014,12,10,08,11,11.30
2014,12,10,08,12,6.40
2014,12,10,08,13,11.30
2014,12,10,08,14,12.90
2014,12,10,08,15,16.10
2014,12,10,08,16,16.10
2014,12,10,08,17,11.30
2014,12,10,08,18,9.60
2014,12,10,08,19,11.30
2014,12,10,08,20,12.90
2014,12,10,08,21,16.10
2014,12,10,08,22,17.70
2014,12,10,08,23,17.70
2014,12,10,08,24,14.50
2014,12,10,08,25,20.90
2014,12,10,08,26,9.60
2014,12,10,08,27,17.70
2014,12,10,08,28,11.30
2014,12,10,08,29,9.60
2014,12,10,08,30,9.60
2014,12,10,08,31,19.30
2014,12,10,08,32,16.10
2014,12,10,08,33,12.90
2014,12,10,08,34,22.50
2014,12,10,08,35,30.60
2014,12,10,08,36,17.70
2014,12,10,08,37,12.90
2014,12,10,08,38,25.70
2014,12,10,08,39,20.90
2014,12,10,08,40,33.80
2014,12,10,08,41,9.60
2014,12,10,08,42,24.20
2014,12,10,08,43,19.30
2014,12,10,08,44,12.90
2014,12,10,08,45,9.60
2014,12,10,08,46,12.90
2014,12,10,08,47,16.10
2014,12,10,08,48,22.50
2014,12,10,08,49,17.70
2014,12,10,08,50,11.30
2014,12,10,08,51,14.50
2014,12,10,08,52,17.70
2014,12,10,08,53,19.30
2014,12,10,08,54,27.40
2014,12,10,08,55,24.20
2014,12,10,08,56,29.00
2014,12,10,08,57,20.90
2014,12,10,08,58,16.10
2014,12,10,08,59,11.30
2014,12,10,09,00,9.60
2014,12,10,09,01,11.30
2014,12,10,09,02,19.30
2014,12,10,09,03,17.70
2014,12,10,09,04,27.40
2014,12,10,09,05,12.90
2014,12,10,09,06,16.10
2014,12,10,09,07,12.90
2014,12,10,09,08,11.30
2014,12,10,09,09,16.10
2014,12,10,09,10,17.70
2014,12,10,09,11,16.10
2014,12,10,09,12,9.60
2014,12,10,09,13,22.50
2014,12,10,09,14,16.10
2014,12,10,09,15,22.50
2014,12,10,09,16,32.20
2014,12,10,09,17,32.20
2014,12,10,09,18,22.50
2014,12,10,09,19,16.10
2014,12,10,09,20,20.90
2014,12,10,09,21,30.60
2014,12,10,09,22,20.90
2014,12,10,09,23,14.50
2014,12,10,09,24,16.10
2014,12,10,09,25,11.30
2014,12,10,09,26,20.90
2014,12,10,09,27,9.60
2014,12,10,09,28,17.70
2014,12,10,09,29,14.50
2014,12,10,09,30,8.10
2014,12,10,09,31,8.10
2014,12,10,09,32,1.60
2014,12,10,09,33,3.20
2014,12,10,09,34,12.90
2014,12,10,09,35,9.60
2014,12,10,09,36,8.10
2014,12,10,09,37,4.80
2014,12,10,09,38,4.80
2014,12,10,09,39,3.20
2014,12,10,09,40,3.20
2014,12,10,09,41,9.60
2014,12,10,09,42,8.10
2014,12,10,09,43,8.10
2014,12,10,09,44,8.10
2014,12,10,09,45,11.30
2014,12,10,09,46,8.10
2014,12,10,09,47,1.60
2014,12,10,09,48,1.60
2014,12,10,09,49,1.60
2014,12,10,09,50,1.60
2014,12,10,09,51,3.20
2014,12,10,09,52,3.20
2014,12,10,09,53,3.20
2014,12,10,09,54,4.80
2014,12,10,09,55,3.20
2014,12,10,09,56,3.20
2014,12,10,09,57,4.80
2014,12,10,10,01,3.20
2014,12,10,10,02,4.80
2014,12,10,10,03,4.80
2014,12,10,10,04,1.60
2014,12,10,10,05,3.20
2014,12,10,10,06,4.80
2014,12,10,10,07,4.80
2014,12,10,10,08,8.10
2014,12,10,10,09,6.40
2014,12,10,10,10,4.80
2014,12,10,10,11,6.40
2014,12,10,10,12,1.60
2014,12,10,10,13,3.20
2014,12,10,10,14,6.40
2014,12,10,10,15,6.40
2014,12,10,10,16,8.10
2014,12,10,10,17,19.30
2014,12,10,10,18,14.50
2014,12,10,10,19,3.20
2014,12,10,10,20,3.20
2014,12,10,10,21,3.20
2014,12,10,10,22,1.60
2014,12,10,10,24,3.20
2014,12,10,10,25,3.20
2014,12,10,10,26,8.10
2014,12,10,10,27,6.40
2014,12,10,10,28,6.40
2014,12,10,10,29,6.40
2014,12,10,10,30,1.60
2014,12,10,10,31,1.60
2014,12,10,10,32,4.80
2014,12,10,10,33,3.20
2014,12,10,10,34,4.80
2014,12,10,10,35,4.80
2014,12,10,10,36,3.20
2014,12,10,10,37,4.80
2014,12,10,10,38,6.40
2014,12,10,10,39,8.10
2014,12,10,10,40,4.80
2014,12,10,10,41,3.20
2014,12,10,10,42,3.20
2014,12,10,10,43,3.20
2014,12,10,10,44,6.40
2014,12,10,10,45,3.20
2014,12,10,10,46,3.20
2014,12,10,10,48,3.20
2014,12,10,10,49,3.20
2014,12,10,10,50,3.20
2014,12,10,10,51,4.80
2014,12,10,10,52,6.40
2014,12,10,10,53,4.80
2014,12,10,10,54,3.20
2014,12,10,10,55,3.20
2014,12,10,10,56,1.60
2014,12,10,10,57,3.20
2014,12,10,10,58,3.20
2014,12,10,10,59,4.80
2014,12,10,11,00,6.40
2014,12,10,11,01,4.80
2014,12,10,11,02,9.60
2014,12,10,11,03,11.30
2014,12,10,11,04,3.20
2014,12,10,11,05,3.20
2014,12,10,11,06,3.20
2014,12,10,11,07,1.60
2014,12,10,11,08,3.20
2014,12,10,11,09,1.60
2014,12,10,11,10,3.20
2014,12,10,11,11,4.80
2014,12,10,11,12,4.80
2014,12,10,11,15,3.20
2014,12,10,11,16,3.20
2014,12,10,11,18,4.80
2014,12,10,11,19,3.20
2014,12,10,11,20,4.80
2014,12,10,11,21,1.60
2014,12,10,11,22,3.20
2014,12,10,11,23,9.60
2014,12,10,11,24,4.80
2014,12,10,11,25,3.20
2014,12,10,11,26,3.20
2014,12,10,11,27,3.20
2014,12,10,11,28,1.60
2014,12,10,11,29,3.20
2014,12,10,11,30,3.20
2014,12,10,11,31,4.80
2014,12,10,11,32,3.20
2014,12,10,11,35,3.20
2014,12,10,11,36,3.20
2014,12,10,11,37,4.80
2014,12,10,11,38,1.60
2014,12,10,11,40,3.20
2014,12,10,11,41,3.20
2014,12,10,11,42,3.20
2014,12,10,11,43,4.80
2014,12,10,11,44,3.20
2014,12,10,11,45,4.80
2014,12,10,11,46,1.60
2014,12,10,11,48,1.60
2014,12,10,11,49,3.20
2014,12,10,11,50,1.60
2014,12,10,11,52,3.20
2014,12,10,11,53,3.20
2014,12,10,11,54,3.20
2014,12,10,11,55,4.80
2014,12,10,11,56,1.60
2014,12,10,11,57,3.20
2014,12,10,11,58,6.40
2014,12,10,11,59,4.80
2014,12,10,12,00,3.20
2014,12,10,12,03,3.20
2014,12,10,12,04,3.20
2014,12,10,12,05,3.20
2014,12,10,12,06,1.60
2014,12,10,12,07,1.60
2014,12,10,12,08,3.20
2014,12,10,12,09,1.60
2014,12,10,12,10,1.60
2014,12,10,12,11,3.20
2014,12,10,12,14,1.60
2014,12,10,12,15,3.20
2014,12,10,12,17,3.20
2014,12,10,12,18,3.20
2014,12,10,12,19,3.20
2014,12,10,12,20,1.60
2014,12,10,12,21,3.20
2014,12,10,12,22,3.20
2014,12,10,12,23,4.80
2014,12,10,12,24,1.60
2014,12,10,12,25,3.20
2014,12,10,12,26,9.60
2014,12,10,12,27,8.10
2014,12,10,12,28,1.60
2014,12,10,12,29,3.20
2014,12,10,12,30,3.20
2014,12,10,12,31,3.20
2014,12,10,12,32,3.20
2014,12,10,12,33,3.20
2014,12,10,12,34,3.20
2014,12,10,12,35,3.20
2014,12,10,12,36,1.60
2014,12,10,12,37,3.20
2014,12,10,12,42,6.40
2014,12,10,12,43,3.20
2014,12,10,12,44,1.60
2014,12,10,12,45,3.20
2014,12,10,12,46,3.20
2014,12,10,12,47,4.80
2014,12,10,12,48,3.20
2014,12,10,12,49,9.60
2014,12,10,12,50,8.10
2014,12,10,12,51,1.60
2014,12,10,12,52,1.60
2014,12,10,12,53,1.60
2014,12,10,12,54,1.60
2014,12,10,12,55,1.60
2014,12,10,12,56,1.60
2014,12,10,12,57,1.60
2014,12,10,13,11,3.20
2014,12,10,13,12,1.60
2014,12,10,13,16,1.60
2014,12,10,13,22,3.20
2014,12,10,13,23,3.20
2014,12,10,13,24,3.20
2014,12,10,13,25,3.20
2014,12,10,13,26,1.60
2014,12,10,13,27,1.60
2014,12,10,13,28,3.20
2014,12,10,13,29,1.60
2014,12,10,13,30,1.60
2014,12,10,13,31,1.60
2014,12,10,13,32,1.60
2014,12,10,13,33,4.80
2014,12,10,13,34,4.80
2014,12,10,13,35,3.20
2014,12,10,13,36,3.20
2014,12,10,13,37,3.20
2014,12,10,13,38,1.60
2014,12,10,13,39,1.60
2014,12,10,13,42,6.40
2014,12,10,13,43,6.40
2014,12,10,13,44,6.40
2014,12,10,13,45,4.80
2014,12,10,13,46,3.20
2014,12,10,13,47,1.60
2014,12,10,13,48,3.20
2014,12,10,13,49,1.60
2014,12,10,13,50,1.60
2014,12,10,13,51,4.80
2014,12,10,13,52,4.80
2014,12,10,13,53,6.40
2014,12,10,13,54,6.40
2014,12,10,13,55,1.60
2014,12,10,13,56,3.20
2014,12,10,13,57,3.20
2014,12,10,13,58,4.80
2014,12,10,13,59,6.40
2014,12,10,14,00,3.20
2014,12,10,14,01,1.60
2014,12,10,14,02,3.20
2014,12,10,14,03,4.80
2014,12,10,14,04,4.80
2014,12,10,14,05,4.80
2014,12,10,14,06,4.80
2014,12,10,14,07,4.80
2014,12,10,14,08,4.80
2014,12,10,14,09,3.20
2014,12,10,14,10,8.10
2014,12,10,14,11,4.80
2014,12,10,14,14,1.60
2014,12,10,14,15,1.60
2014,12,10,14,16,3.20
2014,12,10,14,17,1.60
2014,12,10,14,18,1.60
2014,12,10,14,19,8.10
2014,12,10,14,20,6.40
2014,12,10,14,21,4.80
2014,12,10,14,22,1.60
2014,12,10,14,23,1.60
2014,12,10,14,24,1.60
2014,12,10,14,25,3.20
2014,12,10,14,26,3.20
2014,12,10,14,27,4.80
2014,12,10,14,28,1.60
2014,12,10,14,29,1.60
2014,12,10,14,30,1.60
2014,12,10,14,31,4.80
2014,12,10,14,32,9.60
2014,12,10,14,33,6.40
2014,12,10,14,34,4.80
2014,12,10,14,35,1.60
2014,12,10,14,36,4.80
2014,12,10,14,37,4.80
2014,12,10,14,38,4.80
2014,12,10,14,39,1.60
2014,12,10,14,40,3.20
2014,12,10,14,41,1.60
2014,12,10,14,43,1.60
2014,12,10,14,44,6.40
2014,12,10,14,45,4.80
2014,12,10,14,46,4.80
2014,12,10,14,47,3.20
2014,12,10,14,49,4.80
2014,12,10,14,51,1.60
2014,12,10,14,52,3.20
2014,12,10,14,55,4.80
2014,12,10,14,56,4.80
2014,12,10,14,57,1.60
2014,12,10,14,58,1.60
2014,12,10,15,00,1.60
2014,12,10,15,02,3.20
2014,12,10,15,06,1.60
2014,12,10,15,07,4.80
2014,12,10,15,08,1.60
2014,12,10,15,09,3.20
2014,12,10,15,11,3.20
2014,12,10,15,12,1.60
2014,12,10,15,13,3.20
2014,12,10,15,14,1.60
2014,12,10,15,15,1.60
2014,12,10,15,16,1.60
2014,12,10,15,18,4.80
2014,12,10,15,19,3.20
2014,12,10,15,20,3.20
2014,12,10,15,21,3.20
2014,12,10,15,22,1.60
2014,12,10,15,23,1.60
2014,12,10,15,24,3.20
2014,12,10,15,25,3.20
2014,12,10,15,26,3.20
2014,12,10,15,27,1.60
2014,12,10,15,30,1.60
2014,12,10,15,31,1.60
2014,12,10,15,32,1.60
2014,12,10,15,34,1.60
2014,12,10,15,36,1.60
2014,12,10,15,37,1.60
2014,12,10,15,41,3.20
2014,12,10,15,42,4.80
2014,12,10,15,43,4.80
2014,12,10,15,44,3.20
2014,12,10,15,45,1.60
2014,12,10,15,46,1.60
2014,12,10,15,47,1.60
2014,12,10,15,48,1.60
2014,12,10,15,49,1.60
2014,12,10,15,50,1.60
2014,12,10,15,52,1.60
2014,12,10,16,55,8.10
2014,12,10,16,56,9.60
2014,12,10,16,57,8.10
2014,12,10,16,58,8.10
2014,12,10,16,59,14.50
2014,12,10,17,00,8.10
2014,12,10,17,01,9.60
2014,12,10,17,02,9.60
2014,12,10,17,03,6.40
2014,12,10,17,04,6.40
2014,12,10,17,05,11.30
2014,12,10,17,06,8.10
2014,12,10,17,07,11.30
2014,12,10,17,08,3.20
2014,12,10,17,09,6.40
2014,12,10,17,10,6.40
2014,12,10,17,11,6.40
2014,12,10,17,12,6.40
2014,12,10,17,13,1.60
2014,12,10,17,14,6.40
2014,12,10,17,15,4.80
2014,12,10,17,16,4.80
2014,12,10,17,17,11.30
2014,12,10,17,18,3.20
2014,12,10,17,19,8.10
2014,12,10,17,20,6.40
2014,12,10,17,21,12.90
2014,12,10,17,22,14.50
2014,12,10,17,23,11.30
2014,12,10,17,24,17.70
2014,12,10,17,25,9.60
2014,12,10,17,26,9.60
2014,12,10,17,27,12.90
2014,12,10,17,28,11.30
2014,12,10,17,29,4.80
2014,12,10,17,30,3.20
2014,12,10,17,31,9.60
2014,12,10,17,32,12.90
2014,12,10,17,33,8.10
2014,12,10,17,34,6.40
2014,12,10,17,35,8.10
2014,12,10,17,36,9.60
2014,12,10,17,37,8.10
2014,12,10,17,38,6.40
2014,12,10,17,39,6.40
2014,12,10,17,40,8.10
2014,12,10,17,41,6.40
2014,12,10,17,42,6.40
2014,12,10,17,43,8.10
2014,12,10,17,44,8.10
2014,12,10,17,45,6.40
2014,12,10,17,46,9.60
2014,12,10,17,47,9.60
2014,12,10,17,48,9.60
2014,12,10,17,49,8.10
2014,12,10,17,50,9.60
2014,12,10,17,51,8.10
2014,12,10,17,52,9.60
2014,12,10,17,53,9.60
2014,12,10,17,54,8.10
2014,12,10,17,55,9.60
2014,12,10,17,56,11.30
2014,12,10,17,57,1.60
2014,12,10,17,58,9.60
2014,12,10,17,59,11.30
2014,12,10,18,00,8.10
2014,12,10,18,01,9.60
2014,12,10,18,02,4.80
2014,12,10,18,03,3.20
2014,12,10,18,04,3.20
2014,12,10,18,05,3.20
2014,12,10,18,06,1.60
2014,12,10,18,08,3.20
2014,12,10,18,13,3.20
2014,12,10,18,14,3.20
2014,12,10,18,15,1.60
2014,12,10,18,19,1.60
2014,12,10,18,20,1.60
2014,12,10,18,25,1.60
2014,12,10,18,26,1.60
2014,12,10,18,27,3.20
2014,12,10,18,28,1.60
2014,12,10,18,29,1.60
2014,12,10,18,30,3.20
2014,12,10,18,31,4.80
2014,12,10,18,32,1.60
2014,12,10,18,33,3.20
2014,12,10,18,34,4.80
2014,12,10,18,35,3.20
2014,12,10,18,36,1.60
2014,12,10,18,37,6.40
2014,12,10,18,38,3.20
2014,12,10,18,39,6.40
2014,12,10,18,40,6.40
2014,12,10,18,41,3.20
2014,12,10,18,42,3.20
2014,12,10,18,43,8.10
2014,12,10,18,44,8.10
2014,12,10,18,45,3.20
2014,12,10,18,46,8.10
2014,12,10,18,47,11.30
2014,12,10,18,48,11.30
2014,12,10,18,49,11.30
2014,12,10,18,50,8.10
2014,12,10,18,51,11.30
2014,12,10,18,52,8.10
2014,12,10,18,53,3.20
2014,12,10,18,54,8.10
2014,12,10,18,55,6.40
2014,12,10,18,56,4.80
2014,12,10,18,57,3.20
2014,12,10,18,58,3.20
2014,12,10,18,59,12.90
2014,12,10,19,00,8.10
2014,12,10,19,01,8.10
2014,12,10,19,02,14.50
2014,12,10,19,03,12.90
2014,12,10,19,04,17.70
2014,12,10,19,05,6.40
2014,12,10,19,06,9.60
2014,12,10,19,07,12.90
2014,12,10,19,08,9.60
2014,12,10,19,09,6.40
2014,12,10,19,10,4.80
2014,12,10,19,11,8.10
2014,12,10,19,12,9.60
2014,12,10,19,13,6.40
2014,12,10,19,14,9.60
2014,12,10,19,15,8.10
2014,12,10,19,16,16.10
2014,12,10,19,17,11.30
2014,12,10,19,18,9.60
2014,12,10,19,19,9.60
2014,12,10,19,20,9.60
2014,12,10,19,21,8.10
2014,12,10,19,22,6.40
2014,12,10,19,23,11.30
2014,12,10,19,24,3.20
2014,12,10,19,25,11.30
2014,12,10,19,26,11.30
2014,12,10,19,27,11.30
2014,12,10,19,28,11.30
2014,12,10,19,29,19.30
2014,12,10,19,30,14.50
2014,12,10,19,31,9.60
2014,12,10,19,32,8.10
2014,12,10,19,33,6.40
2014,12,10,19,34,9.60
2014,12,10,19,35,12.90
2014,12,10,19,36,12.90
2014,12,10,19,37,11.30
2014,12,10,19,38,11.30
2014,12,10,19,39,11.30
2014,12,10,19,40,9.60
2014,12,10,19,41,6.40
2014,12,10,19,42,9.60
2014,12,10,19,43,11.30
2014,12,10,19,44,9.60
2014,12,10,19,45,4.80
2014,12,10,19,46,6.40
2014,12,10,19,47,6.40
2014,12,10,19,48,9.60
2014,12,10,19,49,9.60
2014,12,10,19,50,12.90
2014,12,10,19,51,17.70
2014,12,10,19,52,6.40
2014,12,10,19,53,3.20
2014,12,10,19,54,6.40
2014,12,10,19,55,6.40
2014,12,10,19,56,8.10
2014,12,10,19,57,6.40
2014,12,10,19,58,6.40
2014,12,10,19,59,3.20
2014,12,10,20,00,6.40
2014,12,10,20,01,9.60
2014,12,10,20,02,8.10
2014,12,10,20,03,16.10
2014,12,10,20,04,11.30
2014,12,10,20,05,6.40
2014,12,10,20,06,9.60
2014,12,10,20,07,9.60
2014,12,10,20,08,9.60
2014,12,10,20,09,9.60
2014,12,10,20,10,17.70
2014,12,10,20,11,11.30
2014,12,10,20,12,4.80
2014,12,10,20,13,1.60
2014,12,10,20,14,6.40
2014,12,10,20,15,8.10